Tracking 30107 objects as of 18-Jan-2025
HD Live streaming from Space Station
objects crossing your sky now

SL-12 DEB

Track SL-12 DEB now!
10-day predictions


NORAD ID: 41560
Int'l Code: 2008-067J
Perigee: 708.6 km
Apogee: 18,853.8 km
Inclination: 65.5 °
Period: 340.5 minutes
Semi major axis: 16152 km
RCS: Unknown
Launch date: December 25, 2008
Source: Commonwealth of Independent States (former USSR) (CIS)
Launch site: TYURATAM MISSILE AND SPACE COMPLEX (TTMTR)

Note: This is SATELLITE DEBRIS
Your satellite tracking list
Your tracking list is empty




NASA's NSSDC Master Catalog

Two Line Element Set (TLE):
1 41560U 08067J   25017.23525309  .00000115  00000-0  16330-2 0  9993
2 41560  65.4583 358.7436 5616929 265.3646  32.0157  4.22917911135862
Source of the keplerian elements: AFSPC